Terminal Aerodrome Forecast
Issued by NWS

Home | Current Version | Previous Version | Graphics & Text | Print | Product List | Glossary On
Versions: 1 2 3 4 5 6 7 8 9 10 11 12 13 14 15 16 17 18 19 20 21 22 23
000
FTUS43 KUNR 232137 AAA
TAFGCC
TAF AMD
KGCC 232137Z 2322/2418 09008KT P6SM BKN035
     FM240300 06008KT P6SM -SHRA BKN020
     FM240600 04007KT 5SM -RA BR OVC008
     FM241000 36011KT 2SM RA BR OVC004=

USA.gov is the U.S. government's official web portal to all federal, state and local government web resources and services.